Location: Allen Avenue Elementary School
(34.1169°N, 117.7925°W)
Time: 15:33:10
(UTC+00:00)

Daily predictions for brighter satellites

Satellite Brightness Start Highest point End
(mag) Time Altitude Azimuth Time Altitude Azimuth Time Altitude Azimuth
SJ 16-02 3.9 12:01:47 10° SE 12:04:50 19° E 12:07:54 10° NE
SL-4 R/B 3.8 12:28:17 26° E 12:28:17 26° E 12:30:26 10° ENE
Cosmos 2279 Rocket 4.5 12:25:48 10° N 12:31:55 59° E 12:38:00 10° SSE
Cosmos 836 Rocket 4.5 12:31:50 71° NNE 12:32:21 80° ENE 12:37:32 10° SSE
Cosmos 1151 Rocket 3.1 12:37:31 73° ESE 12:37:31 73° ESE 12:41:35 10° S
H-2A R/B (2) 3.5 12:36:46 23° SSW 12:38:54 35° SSE 12:50:23 10° E
CZ-2C R/B 3.8 12:34:59 10° SE 12:40:06 42° ENE 12:45:06 10° N
MOS 1-B Rocket 4.2 12:36:47 10° SSE 12:43:04 70° ENE 12:48:41 10° N
BREEZE-M DEB 3.2 12:44:32 51° ENE 12:44:32 51° ENE 12:48:34 10° NE
Uosat 12 SS-18 rocket 4.4 12:46:08 63° WNW 12:46:23 65° WNW 12:52:22 10° NNE
BREEZE-M DEB (TANK) 3.6 12:47:05 54° W 12:47:59 67° SW 12:52:12 10° SE
Cosmos 1777 Rocket 4.1 12:44:35 10° S 12:49:46 76° ESE 12:55:00 10° NNE
Cosmos 1634 Rocket 4.0 12:51:51 35° NW 12:54:10 54° W 13:00:09 10° SSW
BREEZE-M DEB (TANK) 4.1 12:47:51 23° NW 12:58:56 87° SW 13:04:01 10° SE
Meteor 1-10 Rocket 4.3 12:56:00 10° N 13:01:33 74° E 13:07:06 10° SSE
CZ-4B R/B 4.1 12:57:18 10° NNE 13:01:48 83° ESE 13:06:12 10° S
Cosmos 1328 Rocket 3.4 13:04:48 33° NNW 13:06:41 69° W 13:10:57 10° S
SL-19 R/B 4.2 13:03:45 10° SSE 13:09:20 79° WSW 13:14:57 10° NNW
SAR-Lupe-3 4.4 13:05:57 10° N 13:09:33 76° WNW 13:13:07 10° SSW
CZ-2C R/B 4.4 13:06:18 10° NNE 13:11:03 40° E 13:16:00 10° SSE
Lacrosse 5 3.6 13:08:34 10° S 13:13:05 33° ESE 13:17:37 10° ENE
Envisat 3.0 13:08:47 10° N 13:13:45 57° WNW 13:18:42 10° SSW
Centaur D-1A AC-35 3.8 13:12:42 13° SW 13:15:44 25° S 13:18:55 10° ESE
SL-8 R/B 3.8 13:16:15 30° NW 13:18:36 73° NE 13:23:22 10° ESE
COSMO-SKYMED 1 2.4 13:16:16 10° S 13:20:35 79° WSW 13:24:56 10° NNW
FALCON 9 R/B 4.1 13:03:47 23° W 13:21:27 81° SSW 13:28:33 10° ESE
ATLAS 3B R/B 2.6 13:17:08 10° SW 13:23:29 59° WNW 13:30:08 10° NNE
Landsat 5 3.7 13:20:45 10° SSE 13:25:16 84° ENE 13:29:44 10° N
ATLAS 5 CENTAUR R/B 2.6 13:27:14 22° NNW 13:27:14 22° NNW 13:29:44 10° N
Cosmos 1408 Rocket 3.8 13:23:24 10° SSW 13:27:29 43° W 13:31:35 10° N
NOAA 11 4.3 13:22:28 10° NNE 13:27:59 81° ESE 13:33:28 10° S
CZ-4C R/B 3.3 13:25:16 10° SSE 13:28:20 56° ENE 13:31:24 10° N
Cosmos 2180 Rocket 4.5 13:23:22 10° NNW 13:29:24 60° W 13:35:23 10° S
Cosmos 1340 Rocket 2.8 13:32:19 10° SSW 13:36:11 57° W 13:40:08 10° N
Cosmos 1743 Rocket 3.5 13:34:49 10° SSW 13:39:10 65° W 13:43:30 10° N
SJ 16-02 2.1 13:39:20 10° SW 13:43:09 29° WNW 13:46:57 10° N
Alouette 2 Rocket 4.0 13:40:33 10° N 13:44:03 55° E 13:48:01 10° SSE
CZ-4B R/B 2.6 13:42:36 10° NNE 13:46:11 84° ESE 13:49:53 10° S
H-2A R/B 4.4 13:48:55 15° W 13:48:55 15° W 13:50:15 10° WSW
OAO 2 Rocket 3.5 13:43:46 10° WSW 13:48:58 78° SSE 13:54:05 10° E
Cosmos 1515 Rocket 4.1 13:49:29 10° NNW 13:53:28 36° W 13:57:25 10° SSW
USA 215 4.3 13:48:16 10° ESE 13:54:13 39° NE 14:00:12 10° NNW
BREEZE-M DEB (TANK) 4.3 13:43:48 10° WSW 13:56:31 36° NW 14:00:27 10° NNE
DELTA 2 R/B (1) 3.9 13:52:54 14° WNW 13:57:38 55° N 14:03:05 10° E
Cosmos 2228 Rocket 3.3 13:54:58 10° N 13:59:31 80° E 14:04:04 10° S
Meteor 1-31 Rocket 4.2 13:56:52 10° NNW 13:59:34 18° WNW 14:02:15 10° WSW
SL-27 R/B 3.7 14:01:14 11° NW 14:03:58 23° W 14:06:47 10° SSW
Meteor 1-27 Rocket 4.0 13:59:19 10° NNW 14:04:47 48° W 14:10:21 10° SSW
CZ-4B R/B 3.7 14:02:58 10° SE 14:05:42 25° ENE 14:08:26 10° NNE
Cosmos 1500 Rocket 4.4 14:02:12 10° SW 14:06:05 29° WNW 14:09:59 10° NNW
Sich 1 2.9 14:02:06 10° SSW 14:06:20 68° W 14:10:35 10° N
SL-4 R/B 2.9 14:03:56 10° W 14:06:48 24° NNW 14:09:49 10° NNE
CZ-2D R/B 4.5 14:07:21 10° NNE 14:11:01 46° E 14:14:40 10° S
Cosmos 1939 Rocket 2.7 14:08:49 10° N 14:12:40 63° WNW 14:16:27 10° SSW
Cosmos 44 3.9 14:07:31 10° SSW 14:12:52 71° ESE 14:18:09 10° NNE
NOAA 12 4.2 14:11:18 10° N 14:16:26 56° WNW 14:21:31 10° SSW
Cosmos 2297 Rocket 3.4 14:11:54 10° N 14:17:16 42° ENE 14:22:36 10° SE
H-2A R/B 2.1 14:13:16 10° SSE 14:17:31 90° ENE 14:21:55 10° NNW
Cosmos 1805 Rocket 4.1 14:14:36 10° SSW 14:18:38 36° W 14:22:41 10° NNW
Okean 1 3.3 14:15:28 10° N 14:19:26 88° E 14:23:22 10° S
CZ-2C R/B 3.9 14:16:26 10° SW 14:20:27 21° W 14:24:26 10° NW
Cosmos 1538 Rocket 4.1 14:16:36 10° NNW 14:21:43 58° WSW 14:26:45 10° S
